Location: Biharia
(46.4333°N, 22.8000°E)
Time: 04:44:14
(UTC+00:00)

Cosmos 494 Rocket - Pass Details

Date: 02 June 2022
Orbit: 742 x 770 km, 74.1° (Epoch: 05 July)

Event Time Altitude Azimuth Distance (km) Brightness Sun altitude
Rises 21:27:20 0° 337° (NNW) 3,192 8.8 -20.0°
Reaches altitude 10° 21:29:42 10° 336° (NNW) 2,264 7.6 -20.1°
Maximum altitude 21:34:49 81° 251° (WSW) 760 3.9 -20.3°
Enters shadow 21:36:27 44° 170° (S) 1,018 4.1 -20.3°
